Location: *
(46.4000°N, 12.6667°E)
Time: 23:27:43
(UTC+00:00)

STARLINK-1239 - Pass Details

Date: 09 April 2020
Orbit: 549 x 550 km, 53.0° (Epoch: 27 May)

Event Time Altitude Azimuth Distance (km) Brightness Sun altitude
Rises 20:15:40 0° 299° (WNW) 2,725 8.5 -23.1°
Reaches altitude 10° 20:17:55 10° 296° (WNW) 1,829 7.3 -23.4°
Enters shadow 20:21:39 60° 248° (WSW) 632 3.9 -23.9°
